Location: Dana
(41.8364°N, 106.7042°W)
Time: 18:17:11
(UTC+00:00)

SR - Pass Details

Date: 10 May 2026
Orbit: 567 x 853 km, 66.7° (Epoch: 9 June)

Event Time Altitude Azimuth Distance (km) Brightness Sun altitude
Rises 01:18:12 0° 321° (NW) 3,383 ? 8.9°
Reaches altitude 10° 01:20:49 10° 313° (NW) 2,466 ? 8.5°
Maximum altitude 01:25:59 36° 249° (WSW) 1,334 ? 7.5°
Drops below altitude 10° 01:31:09 10° 185° (S) 2,462 ? 6.6°
Sets 01:33:46 0° 177° (S) 3,377 ? 6.2°
